Location: Hopville
(44.8032°N, 123.1329°W)
Time: 15:35:58
(UTC+00:00)

ERS-2 - Pass Details

Date: 24 January 2021
Orbit: 492 x 497 km, 98.6° (Epoch: 28 February)

Event Time Altitude Azimuth Distance (km) Brightness Sun altitude
Rises 14:15:20 0° 189° (S) 2,571 5.8 -14.9°
Reaches altitude 10° 14:17:36 10° 201° (SSW) 1,692 4.7 -14.5°
Maximum altitude 14:20:47 28° 262° (W) 958 3.0 -14.0°
Enters shadow 14:21:51 24° 293° (WNW) 1,068 3.2 -13.8°
